Location: Altmatt
(47.1333°N, 8.7000°E)
Time: 18:12:39
(UTC+00:00)

Okean 3 Rocket - Pass Details

Date: 13 July 2020
Orbit: 615 x 645 km, 82.5° (Epoch: 13 August)

Event Time Altitude Azimuth Distance (km) Brightness Sun altitude
Exits shadow 22:16:08 24° 219° (SW) 1,295 4.9 -19.2°
Maximum altitude 22:18:30 49° 283° (WNW) 808 4.3 -19.3°
Drops below altitude 10° 22:22:48 10° 359° (N) 1,996 7.3 -19.5°
Sets 22:25:06 0° 5° (N) 2,904 8.3 -19.6°
